VALENCIA, VC current weather conditions

sailwx.info

Wind from 280 at 25 knots gusting 41

Air temperature 16.0° C
Dewpoint 8.0° C

Last reported at 2015-Jan-30 01:00 UTC.
Time now 2015-Jan-30 02:42 UTC

Location: N 39°35' W 000°27'.
View on Google Maps.

See reports from other nearby stations

  
Tides and Currents Weather Stations Pressure Air Temp Water Temp Dewpoint Dewpoint Depression Visibility Wind Speed Wind Dir Waves Ship Positions
date/time (UTC)wind fromknots sea level pressurealtimeterstation pressurevisibilityair tempwater tempwave heightnotes
2015-Jan-30 01:00 280 25 gusting 41 16.0
2015-Jan-30 00:00 270 22 gusting 34 16.0
2015-Jan-29 23:00 270 19 gusting 38 15.0
2015-Jan-29 21:00 260 14 gusting 25 16.0
2015-Jan-29 20:00 260 16 15.0
2015-Jan-29 19:00 260 11 16.0
2015-Jan-29 18:00 270 13 16.0
2015-Jan-29 17:00 250 15 gusting 25 17.0
2015-Jan-29 16:00 250 15 gusting 26 19.0
2015-Jan-29 15:00 260 15 gusting 26 18.0
2015-Jan-29 14:00 270 16 gusting 27 19.0
2015-Jan-29 12:00 260 9 16.0
2015-Jan-29 11:00 260 11 gusting 20 16.0
2015-Jan-29 10:00 300 6 14.0
2015-Jan-29 09:00 290 3 13.0
2015-Jan-29 08:00 9.0
2015-Jan-29 07:00 310 4 8.0
2015-Jan-29 06:00 8.0
2015-Jan-29 05:00 280 4 9.0
2015-Jan-29 04:00 280 7 7.0
2015-Jan-29 03:00 290 4 6.0
2015-Jan-29 02:00 360 3 4.0
2015-Jan-29 01:00 220 3 6.0
2015-Jan-29 00:00 280 3 4.0
2015-Jan-28 23:00 4.0
2015-Jan-28 22:00 5.0
2015-Jan-28 19:00 360 4 8.0
2015-Jan-28 18:00 10.0
2015-Jan-28 17:00 110 6 12.0
2015-Jan-28 16:00 110 7 14.0
2015-Jan-28 13:00 190 5 15.0
2015-Jan-28 11:00 130 2 15.0
2015-Jan-28 10:00 13.0
2015-Jan-28 09:00 300 3 11.0
2015-Jan-28 07:00 5.0
2015-Jan-28 06:00 280 3 5.0
2015-Jan-28 05:00 270 4 7.0
2015-Jan-28 04:00 290 6 9.0
2015-Jan-28 03:00 290 7 10.0
2015-Jan-28 02:00 350 4 11.0